Regional Weather Roundup
Issued by NWS Jackson, KY

Home | Current Version | Previous Version | Text Only | Print | Product List | Glossary On
Versions: 1 2 3 4 5 6 7 8 9 10 11 12 13 14 15 16 17 18 19 20 21 22 23 24 25 26 27 28 29 30 31 32 33 34 35 36 37 38 39 40 41 42 43 44 45 46 47 48 49 50
000
ASUS43 KJKL 301819
RWRJKL

EAST KENTUCKY HOURLY WEATHER ROUNDUP
NATIONAL WEATHER SERVICE JACKSON KY
200 PM EDT SAT AUG 30 2014

NOTE: "FAIR" INDICATES FEW OR NO CLOUDS BELOW 12,000 FEET WITH
NO SIGNIFICANT WEATHER AND/OR OBSTRUCTIONS TO VISIBILITY.

* THESE REPORTS ARE NOT UNDER NWS QUALITY CONTROL AND MAY NOT
  REPORT WEATHER SUCH AS PRECIPITATION AND FOG.

KYZ079-080-083-085-087-088-110-112-115-119-120-301900
...EASTERN KENTUCKY...

CITY           SKY/WX    TMP DP  RH WIND       PRES   REMARKS
JACKSON        PTSUNNY   87  68  52 CALM      30.14F HX  90
6HR MIN TEMP:  73; 6HR MAX TEMP:  87;

LONDON         MOSUNNY   88  66  48 S8        30.13F HX  90
6HR MIN TEMP:  71; 6HR MAX TEMP:  88;

SOMERSET*      MOSUNNY   86  63  45 SW7       30.13S
MONTICELLO*    PTSUNNY   86  69  56 SW9       30.13F HX  90
6HR MIN TEMP:  75; 6HR MAX TEMP:  88;

WILLIAMSBURG*  SUNNY     84  68  58 CALM      30.13F
MIDDLESBORO*   PTSUNNY   87  67  51 S5        30.15F
6HR MIN TEMP:  66; 6HR MAX TEMP:  88;

HARLAN APT*    MOCLDY    88  61  40 MISG      30.16F
HAZARD APT*    PTCLDY    88  66  48 S8        30.14F HX  90
BLACK MTN*       N/A     75  63  64 CALM        N/A
BIG SANDY*     PTCLDY    88  69  51 S10       30.14S HX  92
6HR MIN TEMP:  75; 6HR MAX TEMP:  88;

MOREHEAD APT*  CLEAR     88  68  51 S10G17    30.12S HX  91
ASHLAND*       SUNNY     88  64  45 W6        30.06F
$$

KYZ035-036-041-042-044-050-067-078-099-301900
...CENTRAL KENTUCKY...

CITY           SKY/WX    TMP DP  RH WIND       PRES   REMARKS
MT STERLING*   PTSUNNY   86  68  54 SW9       30.12S
FLEMING/MASON* SUNNY     88  68  51 S9        30.09F HX  91
DANVILLE*      MOSUNNY   88  68  51 SW10      30.11F HX  91
RICHMOND*      MOSUNNY   90  64  43 SW9       30.10F HX  91
LEXINGTON      MOSUNNY   89  67  47 S12       30.09F HX  92
6HR MIN TEMP:  73; 6HR MAX TEMP:  90;

FRANKFORT      MOSUNNY   88  68  51 SW10      30.06F HX  91
6HR MIN TEMP:  71; 6HR MAX TEMP:  88;

$$

KYZ091>093-OHZ055-061-077-WVZ005-015-034-035-042-301900
...SOUTHERN OHIO/WEST VIRGINIA...

CITY           SKY/WX    TMP DP  RH WIND       PRES   REMARKS
COVINGTON      PTSUNNY   85  66  53 S9        30.06F
COLUMBUS       PTSUNNY   91  61  36 S16G23    30.04F HX  91
DAYTON         CLOUDY    84  66  54 SW18G28   30.06F
WILMINGTON     PTSUNNY   86  66  51 SW13      30.06F
HUNTINGTON     SUNNY     88  68  51 SW9       30.09F HX  91
CHARLESTON     MOSUNNY   88  66  48 S9        30.11F HX  90
PINEVILLE*     PTSUNNY   89  69  50 MISG      30.23S HX  93
BECKLEY        MOSUNNY   82  60  47 S7        30.23F
BLUEFIELD      MOSUNNY   85  61  44 S9        30.26F
$$

VAZ002-007-008-TNZ017-027-036-066-071-301900
...SOUTHWEST VIRGINIA/EAST TENNESSEE...

CITY           SKY/WX    TMP DP  RH WIND       PRES   REMARKS
WISE*          SUNNY     82  59  44 S6        30.25F
JONESVILLE*      N/A     88  64  45 SW8       30.18F
ABINGDON*      SUNNY     88  60  38 SE6       30.21F
BRISTOL        PTSUNNY   90  57  32 VRB3      30.17F
KNOXVILLE      CLOUDY    86  67  52 W6        30.12F
OAK RIDGE      CLOUDY    87  67  51 S3        30.15F HX  90
CROSSVILLE     CLOUDY    78  64  61 VRB5      30.19S
NASHVILLE      CLOUDY    81  70  69 W5        30.10S
$$

...KEY TO REMARKS...
VSB - VISIBILITY IN MILES
WCI - WIND CHILL INDEX
HX  - HEAT INDEX

$$


USA.gov is the U.S. government's official web portal to all federal, state and local government web resources and services.